15 daagse weersverwachting Venezia, Mestre (IT)

  • Overzicht
  • Per uur
  • 15 dagen
  • Extra
  • Vergelijk
  • Kaarten
  • Dagkaart
  • Meer »
  • Info
  • Statistieken
  • Directe link
    Temp 6h Neerslag Wind  
 07:15     16:38    Daglengte: 9:23 Vandaag
19:00
11°
4.3 mm
4
 07:17     16:37    Daglengte: 9:20 Morgen
01:00
24.8 mm
6
07:00
11°
19.0 mm
5
13:00
12°
27.4 mm
5
19:00
12°
40.0 mm
5
 07:18     16:36    Daglengte: 9:18 Woensdag 20 Nov
01:00
11°
32.5 mm
5
07:00
11°
28.4 mm
3
13:00
15°
 
2
19:00
11°
 
3
 07:19     16:35    Daglengte: 9:16 Donderdag 21 Nov
01:00
 
2
07:00
 
1
13:00
12°
 
1
Locatie info
Region: Veneto
Latitude: 45.4927°N
Longitude: 12.2426°E
2 masl
Postcode: 30174
Temp/Neerslag /Baro Onweer/Dauwpunt
    Temp Baro 1h Neerslag Dauwpunt Wind UV Bewolking  
 07:15     16:38    Daglengte: 9:23 Vandaag
19:00
11°
1015.0 hPa 4.3 mm
82%
7.6°
4
Windvlaag: -1.3 km/h
91%
20:00
11°
1015.3 hPa 3.5 mm
82%
7.3°
5
Windvlaag: -1.8 km/h
88%
21:00
10°
Voelt als: 7.4°
1015.3 hPa 4.7 mm
82%
7.5°
5
Windvlaag: -2.6 km/h
91%
22:00
10°
Voelt als: 7.1°
1015.5 hPa 4.9 mm
82%
7.8°
5
Windvlaag: -3.1 km/h
90%
23:00
10°
Voelt als: 6.9°
1015.5 hPa 3.8 mm
82%
7.9°
6
Windvlaag: -2.1 km/h
89%
 07:17     16:37    Daglengte: 9:20 Morgen
00:00
Voelt als: 6.3°
1015.5 hPa 4.2 mm
82%
7.4°
6
Windvlaag: -2.1 km/h
91%
01:00
Voelt als: 6.3°
1015.0 hPa 3.7 mm
82%
7.5°
6
Windvlaag: -3.5 km/h
89%
02:00
Voelt als: 6.6°
1015.2 hPa 5.2 mm
70%
7.7°
6
Windvlaag: -3.5 km/h
85%
03:00
10°
Voelt als: 7.0°
1014.7 hPa 4.7 mm
72%
8.0°
6
Windvlaag: -2.9 km/h
85%
04:00
10°
1014.4 hPa 4.2 mm
82%
8.5°
6
Windvlaag: -2.2 km/h
90%
05:00
10°
1014.2 hPa
75%
9.1°
6
Windvlaag: -2.4 km/h
90%
06:00
11°
1014.5 hPa
44%
9.4°
6
Windvlaag: -2.6 km/h
90%
07:00
11°
1014.8 hPa 5.0 mm
82%
9.8°
5
Windvlaag: -2.3 km/h
91%
08:00
11°
1015.0 hPa 4.2 mm
82%
10.1°
5
Windvlaag: -1.8 km/h
91%
09:00
12°
1015.3 hPa 4.2 mm
82%
10.4°
5
Windvlaag: -2.2 km/h
91%
10:00
12°
1015.4 hPa 5.0 mm
82%
10.6°
5
Windvlaag: -2.5 km/h
91%
11:00
12°
1015.4 hPa 5.1 mm
82%
10.8°
5
Windvlaag: -3 km/h
90%
12:00
12°
1014.9 hPa 4.5 mm
82%
10.4°
6
Windvlaag: -2.9 km/h
90%
13:00
12°
1014.7 hPa 4.4 mm
82%
10.6°
5
Windvlaag: -2.4 km/h
90%
14:00
12°
1014.6 hPa 5.3 mm
82%
10.7°
5
Windvlaag: -2.4 km/h
91% warningclass
15:00
12°
1014.8 hPa 7.6 mm
82%
10.7°
5
Windvlaag: -2.4 km/h
91% warningclass
16:00
12°
1014.8 hPa 6.8 mm
75%
10.5°
5
Windvlaag: -2 km/h
91% warningclass
17:00
12°
1014.7 hPa 6.9 mm
37%
10.3°
5
Windvlaag: -2.1 km/h
90% warningclass
18:00
12°
1014.8 hPa 6.8 mm
69%
10.3°
6
Windvlaag: -1.5 km/h
88%
19:00
12°
1014.9 hPa 6.7 mm
75%
10.2°
5
Windvlaag: -2.1 km/h
84%
20:00
12°
1015.0 hPa 7.1 mm
77%
10.6°
4
Windvlaag: -2.8 km/h
85% warningclass
21:00
12°
1014.9 hPa 6.7 mm
32%
10.5°
4
Windvlaag: -2.4 km/h
82%
22:00
12°
1014.7 hPa 6.7 mm
31%
10.5°
4
Windvlaag: -2.5 km/h
73%
23:00
11°
1014.5 hPa
75%
10.4°
5
Windvlaag: -2.3 km/h
74%
 07:18     16:36    Daglengte: 9:18 Woensdag 20 Nov
00:00
11°
1014.4 hPa 5.0 mm
77%
10.3°
4
Windvlaag: -2.2 km/h
90%
01:00
11°
1014.1 hPa 7.1 mm
78%
9.9°
5
Windvlaag: -1.9 km/h
87%
02:00
11°
1014.0 hPa 4.9 mm
80%
9.8°
5
Windvlaag: -1.7 km/h
83%
03:00
11°
1013.6 hPa 4.7 mm
79%
9.7°
5
Windvlaag: -1.5 km/h
86%
04:00
11°
1013.2 hPa 4.9 mm
82%
9.6°
4
Windvlaag: -1.5 km/h
88%
05:00
11°
1013.0 hPa 7.2 mm
80%
9.7°
4
Windvlaag: -1.1 km/h
90%
06:00
11°
1012.8 hPa 6.7 mm
72%
9.6°
4
Windvlaag: -1.1 km/h
85%
07:00
11°
1012.7 hPa
32%
9.2°
3
Windvlaag: -0.9 km/h
60%
08:00
11°
1012.7 hPa
19%
8.7°
2
Windvlaag: -0.7 km/h
62%
09:00
11°
1012.8 hPa
20%
8.9°
2
Windvlaag: -0.3 km/h
60%
10:00
13°
1012.8 hPa
14%
9.6°
2
Windvlaag: -0.5 km/h
55%
11:00
14°
1012.6 hPa
14%
9.7°
2
Windvlaag: -0.8 km/h
54%
12:00
14°
1012.1 hPa
14%
9.6°
2
Windvlaag: -0.4 km/h
69%
13:00
15°
1011.8 hPa
14%
9.7°
2
Windvlaag: 0.4 km/h
58%
14:00
15°
1011.6 hPa
14%
9.9°
2
Windvlaag: 0.8 km/h
67%
15:00
15°
1011.5 hPa
14%
10.1°
2
Windvlaag: 0.8 km/h
62%
16:00
14°
1011.7 hPa
21%
10.5°
2
Windvlaag: 0.9 km/h
59%
17:00
13°
1011.8 hPa
21%
10.0°
2
Windvlaag: 0.7 km/h
54%
18:00
12°
1011.9 hPa
21%
9.3°
3
Windvlaag: 1 km/h
71%
19:00
11°
1012.3 hPa
21%
8.6°
3
Windvlaag: 1.1 km/h
78%
20:00
10°
1012.5 hPa
21%
8.4°
3
Windvlaag: 1.1 km/h
33%
21:00
10°
Voelt als: 8.6°
1012.7 hPa
21%
8.4°
3
Windvlaag: 1.3 km/h
16%
22:00
10°
Voelt als: 8.1°
1012.9 hPa
21%
8.1°
3
Windvlaag: 1.7 km/h
10%
23:00
Voelt als: 7.6°
1013.1 hPa
21%
7.9°
3
Windvlaag: 1.6 km/h
14%
 07:19     16:35    Daglengte: 9:16 Donderdag 21 Nov
00:00
Voelt als: 7.1°
1013.1 hPa
21%
7.5°
2
Windvlaag: 1.4 km/h
15%
01:00
Voelt als: 7.0°
1013.1 hPa
21%
7.4°
2
Windvlaag: 1.3 km/h
15%
02:00
Voelt als: 6.6°
1013.1 hPa
21%
7.0°
2
Windvlaag: 1.5 km/h
29%
03:00
Voelt als: 6.6°
1012.9 hPa
21%
6.9°
2
Windvlaag: 1.5 km/h
45%
04:00
Voelt als: 6.5°
1012.8 hPa
21%
6.8°
2
Windvlaag: -0 km/h
72%
05:00
Voelt als: 7.0°
1012.7 hPa
21%
7.0°
1
Windvlaag: 1 km/h
87%
06:00
Voelt als: 6.9°
1012.8 hPa
21%
6.7°
1
Windvlaag: 1 km/h
83%
07:00
Voelt als: 6.7°
1013.1 hPa
21%
6.7°
1
Windvlaag: 1.4 km/h
87%
08:00
Voelt als: 7.4°
1013.3 hPa
21%
6.9°
1
Windvlaag: 2.2 km/h
92%
09:00
Voelt als: 8.4°
1013.4 hPa
21%
7.1°
1
Windvlaag: 1.3 km/h
96%
10:00
1013.5 hPa
22%
7.4°
1
Windvlaag: 0.4 km/h
93%
11:00
10°
1013.6 hPa
21%
7.8°
1
Windvlaag: -1 km/h
91%
12:00
11°
1013.5 hPa
21%
8.1°
1
Windvlaag: -2 km/h
89%
13:00
12°
1013.2 hPa
21%
8.3°
1
Windvlaag: -1 km/h
90%
14:00
12°
1013.2 hPa
24%
8.6°
1
Windvlaag: 1.9 km/h
74%
15:00
12°
1013.2 hPa
35%
8.8°
1
Windvlaag: 2.5 km/h
85%
16:00
11°
1013.2 hPa 10.7 mm
77%
8.9°
1
Windvlaag: 2.1 km/h
74%
17:00
11°
1013.3 hPa
26%
8.8°
1
Windvlaag: 3.5 km/h
74%
18:00
11°
1013.5 hPa
24%
8.8°
1
Windvlaag: 4.9 km/h
86%
Temp/Neerslag /Baro Onweer/Dauwpunt
    Temp Baro Neerslag Dauwpunt Wind Bewolking  
 07:15     16:38    Daglengte: 9:23 Vandaag
19:00
11°
1015.0 hPa 4.3 mm 7.6°
4
91%
22:00
10°
Voelt als: 7.1°
1015.5 hPa 13.2 mm 7.8°
5
90%
 07:17     16:37    Daglengte: 9:20 Morgen
01:00
Voelt als: 6.3°
1015.0 hPa 11.7 mm 7.5°
6
89%
04:00
10°
1014.4 hPa 14.0 mm 8.5°
6
90%
07:00
11°
1014.8 hPa 5.0 mm 9.8°
5
91%
10:00
12°
1015.4 hPa 13.4 mm 10.6°
5
91%
13:00
12°
1014.7 hPa 14.0 mm 10.6°
5
90%
16:00
12°
1014.8 hPa 19.7 mm 10.5°
5
91% warningclass
19:00
12°
1014.9 hPa 20.3 mm 10.2°
5
84%
22:00
12°
1014.7 hPa 20.4 mm 10.5°
4
73%
 07:18     16:36    Daglengte: 9:18 Woensdag 20 Nov
01:00
11°
1014.1 hPa 12.1 mm 9.9°
5
87%
04:00
11°
1013.2 hPa 14.5 mm 9.6°
4
88%
07:00
11°
1012.7 hPa 13.9 mm 9.2°
3
60%
10:00
13°
1012.8 hPa   9.6°
2
55%
13:00
15°
1011.8 hPa   9.7°
2
58%
16:00
14°
1011.7 hPa   10.5°
2
59%
19:00
11°
1012.3 hPa   8.6°
3
78%
22:00
10°
Voelt als: 8.1°
1012.9 hPa   8.1°
3
10%
 07:19     16:35    Daglengte: 9:16 Donderdag 21 Nov
01:00
Voelt als: 7.0°
1013.1 hPa   7.4°
2
15%
04:00
Voelt als: 6.5°
1012.8 hPa   6.8°
2
72%
07:00
Voelt als: 6.7°
1013.1 hPa   6.7°
1
87%
10:00
1013.5 hPa   7.4°
1
93%
13:00
12°
1013.2 hPa   8.3°
1
90%
16:00
11°
1013.2 hPa 10.7 mm 8.9°
1
74%
19:00
10°
1013.8 hPa   8.7°
1
77%
22:00
Voelt als: 8.7°
1014.5 hPa 15.5 mm 8.2°
1
85%
 07:21     16:34    Daglengte: 9:13 Vrijdag 22 Nov
01:00
Voelt als: 8.0°
1014.6 hPa 15.5 mm 7.9°
2
82%
04:00
Voelt als: 7.2°
1014.6 hPa 15.6 mm 7.7°
2
87%
07:00
Voelt als: 6.5°
1014.5 hPa 15.6 mm 7.5°
2
92%
10:00
10°
Voelt als: 8.8°
1014.3 hPa 15.6 mm 8.7°
2
91%
13:00
12°
1014.0 hPa 15.6 mm 9.8°
3
91%
16:00
11°
1013.7 hPa 15.6 mm 9.7°
3
88%
19:00
11°
1013.5 hPa 15.6 mm 9.5°
4
85%
22:00
11°
1013.0 hPa 17.9 mm 9.5°
4
89%
 07:22     16:34    Daglengte: 9:12 Zaterdag 23 Nov
01:00
10°
1012.4 hPa 17.9 mm 9.4°
4
92%
04:00
10°
1011.7 hPa 17.9 mm 9.1°
5
87%
07:00
10°
Voelt als: 7.2°
1011.0 hPa 18.0 mm 8.8°
5
83%
10:00
12°
1011.1 hPa 18.0 mm 10.0°
5
86%
13:00
14°
1011.0 hPa 18.4 mm 11.1°
5
90%
16:00
13°
1011.3 hPa 27.6 mm 10.8°
5
85%
19:00
12°
1011.7 hPa 35.4 mm 10.3°
6
80%
22:00
12°
1012.3 hPa 44.7 mm 10.4°
5
66%
 07:23     16:33    Daglengte: 9:10 Zondag 24 Nov
01:00
11°
1012.9 hPa 55.9 mm 10.4°
5
52%
04:00
11°
1013.2 hPa 57.3 mm 9.8°
4
69%
07:00
11°
1013.6 hPa 57.7 mm 9.1°
4
87%
10:00
13°
1013.9 hPa 58.8 mm 10.0°
4
52%
13:00
15°
1014.0 hPa 60.9 mm 10.6°
3
18%
16:00
13°
1014.2 hPa 61.7 mm 10.1°
3
9%
19:00
11°
1014.4 hPa 62.9 mm 9.4°
2
0%
22:00
10°
1014.3 hPa 63.0 mm 8.4°
3
0%
 07:25     16:32    Daglengte: 9:07 Maandag 25 Nov
01:00
Voelt als: 7.7°
1014.2 hPa 63.0 mm 7.4°
3
0%
04:00
Voelt als: 6.7°
1013.9 hPa 63.0 mm 5.9°
3
0%
07:00
Voelt als: 5.7°
1013.7 hPa 63.0 mm 4.4°
3
0%
10:00
11°
1013.7 hPa 63.0 mm 6.3°
2
1%
13:00
15°
1013.4 hPa 63.0 mm 7.7°
1
2%
16:00
13°
1013.9 hPa   8.2°
2
3%
19:00
10°
1014.4 hPa 125.9 mm 8.0°
2
4%
 07:26     16:31    Daglengte: 9:05 Dinsdag 26 Nov
01:00
Voelt als: 6.6°
1015.8 hPa 125.9 mm 6.2°
3
23%
07:00
Voelt als: 4.6°
1016.7 hPa 125.9 mm 4.3°
2
0%
13:00
14°
1016.5 hPa 125.9 mm 8.0°
2
0%
19:00
Voelt als: 8.1°
1016.4 hPa 125.9 mm 7.6°
2
0%
 07:27     16:31    Daglengte: 9:04 Woensdag 27 Nov
01:00
Voelt als: 5.3°
1016.8 hPa 126.0 mm 5.3°
2
24%
07:00
Voelt als: 4.3°
1016.7 hPa 135.6 mm 4.6°
2
5%
13:00
12°
1017.1 hPa 148.7 mm 7.1°
1
90%
19:00
Voelt als: 6.4°
1017.4 hPa 149.5 mm 6.3°
2
1%
 07:28     16:30    Daglengte: 9:02 Donderdag 28 Nov
01:00
Voelt als: 3.9°
1017.3 hPa 151.7 mm 4.8°
2
89%
07:00
12°
995.4 hPa 163.7 mm 10.7°
2
1%
13:00
13°
1010.1 hPa 1.8 mm 8.0°
1
59%
19:00
11°
1011.5 hPa 1.3 mm 8.1°
1
50%
 07:30     16:30    Daglengte: 9:00 Vrijdag 29 Nov
01:00
10°
1013.0 hPa 1.2 mm 7.4°
1
51%
07:00
1014.0 hPa 0.5 mm 6.7°
0
46%
13:00
13°
1015.0 hPa 0.2 mm 7.8°
1
48%
19:00
11°
1016.1 hPa 0.6 mm 8.0°
1
45%
 07:31     16:29    Daglengte: 8:58 Zaterdag 30 Nov
01:00
10°
Voelt als: 9.5°
1016.9 hPa 1.2 mm 7.3°
2
49%
07:00
Voelt als: 8.9°
1016.6 hPa 0.6 mm 6.6°
1
51%
13:00
13°
1016.1 hPa 0.5 mm 7.6°
1
50%
19:00
11°
1016.6 hPa 0.3 mm 7.6°
1
47%
 07:32     16:29    Daglengte: 8:57 Zondag 01 Dec
01:00
10°
Voelt als: 8.9°
1017.0 hPa 0.4 mm 6.9°
2
44%
07:00
Voelt als: 8.2°
1016.7 hPa 0.2 mm 6.4°
2
47%
13:00
12°
1015.8 hPa 0.7 mm 7.5°
1
53%
19:00
11°
1015.8 hPa 1.4 mm 7.8°
1
52%
 07:33     16:29    Daglengte: 8:56 Maandag 02 Dec
01:00
1015.5 hPa 1.8 mm 7.1°
1
50%
07:00
Voelt als: 8.7°
1014.6 hPa 1.3 mm 6.2°
1
50%
13:00
12°
1013.7 hPa 1.7 mm 6.7°
0
50%
19:00
10°
1015.0 hPa 0.6 mm 6.1°
1
43%
 07:34     16:28    Daglengte: 8:54 Dinsdag 03 Dec
01:00
Voelt als: 7.9°
1015.4 hPa 0.5 mm 5.3°
1
43%
07:00
Voelt als: 6.2°
1015.1 hPa 0.4 mm 4.1°
2
39%
13:00
11°
1014.0 hPa 0.4 mm 4.7°
1
38%
  CAPE Lifted Index Hail Supercell Tornado SRH 3km CL BTM PRES CL TOP PRES Swiss DWD icon SMHI TS
 07:15     16:38    Daglengte: 9:23 Vandaag
19:00 0 J/kg 0.9 K 0 % 0 % 0 % 0 m²/s² 0 0 2.01 61
20:00 0 J/kg -0.3 K 0 % 0 % 0 % 0 m²/s² 0 0 0.87 61
21:00 0 J/kg 0.0 K 0 % 0 % 0 % 0 m²/s² 0 0 0.9 63
22:00 0 J/kg 0.9 K 0 % 0 % 0 % 0 m²/s² 0 0 1.26 63
23:00 0 J/kg 0.1 K 0 % 0 % 0 % 0 m²/s² 0 0 1.21 61
 07:17     16:37    Daglengte: 9:20 Morgen
00:00 0 J/kg -0.4 K 0 % 0 % 0 % 0 m²/s² 0 0 0.32 61
01:00 0 J/kg 0.9 K 0 % 0 % 0 % 0 m²/s² 0 0 2.13 61
02:00 192 J/kg 0.7 K 0 % 0 % 0 % 0 m²/s² 0 0 2.35 3
03:00 178 J/kg 0.7 K 0 % 0 % 0 % 0 m²/s² 0 0 1.33 3
04:00 63 J/kg 1.2 K 0 % 0 % 0 % 0 m²/s² 0 0 1.41 61
05:00 77 J/kg 1.0 K 0 % 0 % 0 % 0 m²/s² 0 0 1.21 80
06:00 208 J/kg -1.0 K 0 % 0 % 0 % 0 m²/s² 0 0 -0.76 3
07:00 234 J/kg -0.2 K 0 % 0 % 0 % 0 m²/s² 0 0 0.1 3
08:00 248 J/kg 0.0 K 0 % 0 % 0 % 0 m²/s² 0 0 0.24 61
09:00 300 J/kg -0.7 K 0 % 0 % 0 % 0 m²/s² 0 0 -0.46 61
10:00 510 J/kg -1.3 K 0 % 0 % 0 % 0 m²/s² 0 0 -1.06 80
11:00 626 J/kg -1.8 K 0 % 0 % 0 % 0 m²/s² 0 0 -1.5 80
12:00 696 J/kg -2.2 K 0 % 0 % 0 % 0 m²/s² 0 0 -1.96 80
13:00 768 J/kg -2.4 K 0 % 0 % 0 % 0 m²/s² 0 0 -1.95 80
14:00 843 J/kg -2.6 K 0 % 0 % 0 % 0 m²/s² 0 0 -2.03 80
15:00 891 J/kg -2.9 K 0 % 0 % 0 % 0 m²/s² 0 0 -2.33 3
16:00 843 J/kg -2.6 K 0 % 0 % 0 % 0 m²/s² 0 0 -2.27 3
17:00 861 J/kg -2.7 K 0 % 0 % 0 % 0 m²/s² 0 0 -2.22 3
18:00 405 J/kg -1.2 K 0 % 0 % 0 % 0 m²/s² 0 0 -0.93 3
19:00 241 J/kg -0.9 K 0 % 0 % 0 % 0 m²/s² 0 0 -0.87 61
20:00 779 J/kg -2.7 K 0 % 0 % 0 % 0 m²/s² 0 0 -2.25 3
21:00 468 J/kg -1.3 K 0 % 0 % 0 % 0 m²/s² 0 0 -0.67 3
22:00 259 J/kg -0.1 K 0 % 0 % 0 % 0 m²/s² 0 0 0.62 3
23:00 218 J/kg -0.1 K 0 % 0 % 0 % 0 m²/s² 0 0 0.53 3
 07:18     16:36    Daglengte: 9:18 Woensdag 20 Nov
00:00 209 J/kg -0.2 K 0 % 0 % 0 % 0 m²/s² 0 0 0.28 80
01:00 77 J/kg 0.1 K 0 % 0 % 0 % 0 m²/s² 0 0 0.91 80
02:00 9 J/kg 0.3 K 0 % 0 % 0 % 0 m²/s² 0 0 1.23 80
03:00 0 J/kg -0.4 K 0 % 0 % 0 % 0 m²/s² 0 0 0.41 3
04:00 0 J/kg -1.1 K 0 % 0 % 0 % 0 m²/s² 0 0 0.55 3
05:00 49 J/kg -1.3 K 0 % 0 % 0 % 0 m²/s² 0 0 -0.13 3
06:00 17 J/kg 0.2 K 0 % 0 % 0 % 0 m²/s² 0 0 1.19 3
07:00 0 J/kg 0.5 K 0 % 0 % 0 % 0 m²/s² 0 0 1.25 3
08:00 0 J/kg 0.4 K 0 % 0 % 0 % 0 m²/s² 0 0 1.3 3
09:00 0 J/kg 0.5 K 0 % 0 % 0 % 0 m²/s² 0 0 1.73 2
10:00 0 J/kg 0.5 K 0 % 0 % 0 % 0 m²/s² 0 0 1.79 3
11:00 1 J/kg 0.9 K 0 % 0 % 0 % 0 m²/s² 0 0 2.04 3
12:00 34 J/kg 1.0 K 0 % 0 % 0 % 0 m²/s² 0 0 2.17 3
13:00 92 J/kg 0.9 K 0 % 0 % 0 % 0 m²/s² 0 0 2.07 3
14:00 111 J/kg 0.6 K 0 % 0 % 0 % 0 m²/s² 0 0 1.68 3
15:00 101 J/kg 0.6 K 0 % 0 % 0 % 0 m²/s² 0 0 1.53 3
16:00 135 J/kg 0.3 K 0 % 0 % 0 % 0 m²/s² 0 0 1.14 3
17:00 79 J/kg 0.4 K 0 % 0 % 0 % 0 m²/s² 0 0 1.24 0
18:00 2 J/kg 1.1 K 0 % 0 % 0 % 0 m²/s² 0 0 1.85 1
19:00 0 J/kg 1.3 K 0 % 0 % 0 % 0 m²/s² 0 0 2.08 3
20:00 0 J/kg 1.7 K 0 % 0 % 0 % 0 m²/s² 0 0 2.45 1
21:00 0 J/kg 2.3 K 0 % 0 % 0 % 0 m²/s² 0 0 2.93 0
22:00 0 J/kg 3.2 K 0 % 0 % 0 % 0 m²/s² 0 0 3.83 0
23:00 0 J/kg 3.5 K 0 % 0 % 0 % 0 m²/s² 0 0 4.25 0
 07:19     16:35    Daglengte: 9:16 Donderdag 21 Nov
00:00 0 J/kg 4.1 K 0 % 0 % 0 % 0 m²/s² 0 0 4.88 1
01:00 0 J/kg 5.2 K 0 % 0 % 0 % 0 m²/s² 0 0 6.43 1
02:00 0 J/kg 5.8 K 0 % 0 % 0 % 0 m²/s² 0 0 7.99 2
03:00 0 J/kg 6.6 K 0 % 0 % 0 % 0 m²/s² 0 0 9.45 2
04:00 0 J/kg 6.9 K 0 % 0 % 0 % 0 m²/s² 0 0 10.41 3
05:00 0 J/kg 7.0 K 0 % 0 % 0 % 0 m²/s² 0 0 10.78 3
06:00 0 J/kg 6.7 K 0 % 0 % 0 % 0 m²/s² 0 0 10.57 3
07:00 0 J/kg 6.3 K 0 % 0 % 0 % 0 m²/s² 0 0 10.59 45
08:00 0 J/kg 6.0 K 0 % 0 % 0 % 0 m²/s² 0 0 10.77 45
09:00 0 J/kg 5.7 K 0 % 0 % 0 % 0 m²/s² 0 0 10.74 45
10:00 0 J/kg 5.4 K 0 % 0 % 0 % 0 m²/s² 0 0 10.71 45
11:00 0 J/kg 5.8 K 0 % 0 % 0 % 0 m²/s² 0 0 10.57 45
12:00 0 J/kg 6.0 K 0 % 0 % 0 % 0 m²/s² 0 0 9.9 3
13:00 0 J/kg 5.7 K 0 % 0 % 0 % 0 m²/s² 0 0 9.12 3
14:00 0 J/kg 5.3 K 0 % 0 % 0 % 0 m²/s² 0 0 8.21 3
15:00 0 J/kg 4.5 K 0 % 0 % 0 % 0 m²/s² 0 0 5.91 3
16:00 0 J/kg 3.8 K 0 % 0 % 0 % 0 m²/s² 0 0 4.64 3
17:00 0 J/kg 3.4 K 0 % 0 % 0 % 0 m²/s² 0 0 4.24 3
18:00 0 J/kg 2.8 K 0 % 0 % 0 % 0 m²/s² 0 0 3.79 3
Temp Baro Wind Neerslag
  EWN Forecast EWN WRFDA DWD ICON FMI HIRLAM MET Norway GFS
 07:15     16:38    Daglengte: 9:23 Vandaag
19:00 10.8° 1015.0 hPa 4.4 m/s 4.3 mm 9.9° 1011.8 hPa 6.8 m/s 25.0 mm 11.0° 1014.9 hPa 3.5 m/s -1.0 mm 11.1° 1014.6 hPa 4.5 m/s 0.0 mm 11.0° 1015.4 hPa 4.3 m/s 0.0 mm 10.3° 1015.6 hPa 5.4 m/s
22:00 9.8° 1015.5 hPa 5.5 m/s 13.2 mm 9.8° 1012.9 hPa 4.9 m/s 52.3 mm 9.9° 1016.0 hPa 5.0 m/s 9.0 mm 10.3° 1014.3 hPa 5.6 m/s 0.0 mm 9.8° 1015.8 hPa 5.9 m/s 3.0 mm 9.9° 1016.4 hPa 7.7 m/s
 07:17     16:37    Daglengte: 9:20 Morgen
01:00 9.3° 1015.0 hPa 5.9 m/s 11.7 mm 10.9° 1012.0 hPa 4.1 m/s 54.9 mm 9.1° 1015.6 hPa 5.0 m/s 4.6 mm 9.5° 1014.2 hPa 4.4 m/s 0.0 mm 9.2° 1015.9 hPa 6.7 m/s 5.9 mm 9.4° 1016.4 hPa 7.0 m/s
04:00 10.0° 1014.4 hPa 6.5 m/s 14.0 mm 13.6° 1011.7 hPa 7.3 m/s 57.8 mm 9.6° 1015.0 hPa 4.8 m/s 0.1 mm 10.3° 1013.7 hPa 4.6 m/s 0.0 mm 9.6° 1015.1 hPa 7.0 m/s 3.1 mm 10.5° 1015.4 hPa 7.2 m/s
07:00 11.0° 1014.8 hPa 4.7 m/s 5.0 mm 13.9° 1011.8 hPa 3.3 m/s 61.5 mm 10.0° 1015.5 hPa 4.7 m/s 0.5 mm 12.5° 1013.8 hPa 4.3 m/s 0.0 mm 10.7° 1015.4 hPa 4.7 m/s 1.3 mm 11.0° 1015.5 hPa 7.2 m/s
10:00 12.1° 1015.4 hPa 5.0 m/s 13.4 mm 14.7° 1012.1 hPa 4.2 m/s 66.8 mm 10.7° 1015.9 hPa 5.0 m/s 4.0 mm 14.7° 1013.9 hPa 4.9 m/s 0.0 mm 11.8° 1016.1 hPa 5.0 m/s 5.3 mm 11.4° 1015.9 hPa 7.0 m/s
13:00 12.4° 1014.7 hPa 5.3 m/s 14.0 mm 15.8° 1010.9 hPa 4.1 m/s 70.4 mm 11.6° 1015.2 hPa 5.2 m/s 5.0 mm 15.3° 1013.1 hPa 5.6 m/s 0.0 mm 12.0° 1015.6 hPa 5.0 m/s 4.0 mm 12.3° 1014.8 hPa 5.5 m/s
16:00 12.2° 1014.8 hPa 4.9 m/s 19.7 mm 16.0° 1010.6 hPa 4.5 m/s 76.8 mm 11.8° 1015.2 hPa 4.5 m/s 0.8 mm 15.3° 1012.9 hPa 4.5 m/s 0.0 mm 11.5° 1015.4 hPa 5.1 m/s 10.6 mm 12.6° 1014.6 hPa 6.7 m/s
19:00 11.8° 1014.9 hPa 4.8 m/s 20.3 mm 14.9° 1010.7 hPa 3.6 m/s 82.4 mm 11.3° 1015.1 hPa 3.7 m/s 0.1 mm 14.5° 1013.6 hPa 3.6 m/s 0.0 mm 11.0° 1015.6 hPa 6.0 m/s 5.8 mm 12.2° 1015.2 hPa 5.0 m/s
22:00 11.6° 1014.7 hPa 4.3 m/s 20.4 mm 14.4° 1011.6 hPa 0.7 m/s 92.7 mm 11.2° 1014.4 hPa 3.7 m/s 0.0 mm 13.7° 1014.2 hPa 3.3 m/s 0.0 mm 11.0° 1015.6 hPa 5.3 m/s 3.6 mm 12.3° 1015.7 hPa 3.8 m/s
 07:18     16:36    Daglengte: 9:18 Woensdag 20 Nov
01:00 11.4° 1014.1 hPa 4.6 m/s 12.1 mm 12.5° 1010.7 hPa 3.3 m/s 93.0 mm 11.2° 1014.1 hPa 3.5 m/s 1.7 mm 12.8° 1014.1 hPa 3.8 m/s 0.0 mm 10.9° 1015.1 hPa 5.4 m/s 3.4 mm 11.9° 1014.8 hPa 4.5 m/s
04:00 11.2° 1013.2 hPa 4.2 m/s 14.5 mm 11.9° 1009.1 hPa 3.7 m/s 93.0 mm 11.4° 1012.8 hPa 2.2 m/s 0.8 mm 11.5° 1013.2 hPa 4.9 m/s 0.0 mm 10.7° 1013.9 hPa 4.4 m/s 2.1 mm 11.5° 1013.9 hPa 3.4 m/s
07:00 10.8° 1012.7 hPa 3.5 m/s 13.9 mm 11.8° 1009.4 hPa 5.1 m/s 94.9 mm 10.9° 1012.6 hPa 1.4 m/s 0.1 mm 11.1° 1012.6 hPa 4.7 m/s 0.0 mm 10.6° 1013.2 hPa 3.5 m/s 1.3 mm 11.7° 1013.3 hPa 3.9 m/s
10:00 12.7° 1012.8 hPa 2.1 m/s 0.0 mm 14.1° 1009.5 hPa 2.6 m/s 96.0 mm 12.2° 1013.2 hPa 1.6 m/s 0.0 mm 12.9° 1012.6 hPa 4.1 m/s 0.0 mm 12.8° 1013.2 hPa 1.1 m/s 0.0 mm 12.9° 1013.8 hPa 2.3 m/s
13:00 15.1° 1011.8 hPa 2.1 m/s 0.0 mm 15.6° 1008.9 hPa 2.8 m/s 96.0 mm 14.6° 1012.3 hPa 1.7 m/s 0.0 mm 15.0° 1010.6 hPa 2.2 m/s 0.0 mm 15.1° 1012.3 hPa 2.4 m/s 0.0 mm 14.4° 1013.1 hPa 3.0 m/s
16:00 13.9° 1011.7 hPa 1.8 m/s 0.0 mm 14.9° 1008.4 hPa 3.9 m/s 96.0 mm 14.3° 1011.9 hPa 1.2 m/s 0.0 mm 13.6° 1012.0 hPa 1.8 m/s 0.0 mm 13.5° 1012.9 hPa 2.7 m/s
19:00 11.0° 1012.3 hPa 2.9 m/s 0.0 mm 12.2° 1008.9 hPa 5.9 m/s 96.0 mm 11.3° 1012.6 hPa 1.3 m/s 0.0 mm 11.1° 1012.5 hPa 3.2 m/s 0.0 mm 11.4° 1014.1 hPa 2.9 m/s
22:00 9.5° 1012.9 hPa 2.7 m/s 0.0 mm 11.2° 1009.3 hPa 6.1 m/s 96.0 mm 9.8° 1012.9 hPa 0.9 m/s 0.0 mm 9.6° 1013.2 hPa 2.7 m/s 0.0 mm 10.5° 1014.9 hPa 3.0 m/s
 07:19     16:35    Daglengte: 9:16 Donderdag 21 Nov
01:00 8.3° 1013.1 hPa 2.2 m/s 0.0 mm 10.2° 1010.2 hPa 5.4 m/s 96.0 mm 8.9° 1012.5 hPa 0.9 m/s 0.0 mm 8.2° 1013.4 hPa 2.3 m/s 0.0 mm 9.4° 1015.0 hPa 2.8 m/s
04:00 7.3° 1012.8 hPa 1.5 m/s 0.0 mm 9.6° 1010.8 hPa 4.6 m/s 96.0 mm 8.6° 1012.9 hPa 1.0 m/s 0.0 mm 6.9° 1012.9 hPa 1.3 m/s 0.0 mm 8.6° 1014.9 hPa 3.1 m/s
07:00 7.2° 1013.1 hPa 1.4 m/s 0.0 mm 8.8° 1011.5 hPa 2.0 m/s 96.0 mm 7.8° 1012.9 hPa 0.7 m/s 0.0 mm 7.0° 1013.2 hPa 1.4 m/s 0.0 mm 7.9° 1015.2 hPa 2.3 m/s
10:00 9.2° 1013.5 hPa 0.9 m/s 0.0 mm 10.3° 1013.0 hPa 1.0 m/s 96.0 mm 8.5° 1013.8 hPa 0.9 m/s 0.0 mm 9.3° 1013.4 hPa 0.9 m/s 10.0° 1015.7 hPa 1.7 m/s
13:00 11.6° 1013.2 hPa 0.8 m/s 0.0 mm 13.5° 1013.0 hPa 0.9 m/s 96.0 mm 11.2° 1013.2 hPa 0.8 m/s 0.0 mm 11.6° 1013.5 hPa 0.5 m/s 12.4° 1015.5 hPa 0.8 m/s
16:00 11.4° 1013.2 hPa 0.9 m/s 10.7 mm 13.7° 1012.8 hPa 1.9 m/s 96.0 mm 11.4° 1012.6 hPa 0.9 m/s 0.1 mm 10.8° 1013.7 hPa 0.8 m/s 11.6° 1015.2 hPa 1.3 m/s
19:00 10.3° 1013.8 hPa 1.2 m/s 0.0 mm 11.5° 1013.5 hPa 3.5 m/s 96.0 mm 10.2° 1013.6 hPa 1.0 m/s 0.0 mm 10.1° 1013.9 hPa 1.0 m/s 11.1° 1016.4 hPa 1.9 m/s
22:00 9.2° 1014.5 hPa 1.5 m/s 15.5 mm 9.0° 1014.2 hPa 1.3 m/s 10.8° 1017.3 hPa 3.0 m/s 15.5 mm
 07:21     16:34    Daglengte: 9:13 Vrijdag 22 Nov
01:00 8.7° 1014.6 hPa 1.6 m/s 15.5 mm 8.5° 1014.4 hPa 1.5 m/s 10.4° 1017.4 hPa 2.8 m/s 15.5 mm
04:00 8.2° 1014.6 hPa 1.9 m/s 15.6 mm 8.1° 1014.3 hPa 1.8 m/s 9.9° 1017.0 hPa 3.1 m/s 15.6 mm
07:00 7.8° 1014.5 hPa 2.2 m/s 15.6 mm 7.7° 1014.3 hPa 2.1 m/s 9.1° 1017.1 hPa 2.7 m/s 15.6 mm
10:00 10.0° 1014.3 hPa 2.5 m/s 15.6 mm 9.8° 1014.1 hPa 2.5 m/s 11.2° 1017.0 hPa 2.2 m/s 15.6 mm
13:00 12.1° 1014.0 hPa 2.8 m/s 15.6 mm 12.0° 1013.9 hPa 2.9 m/s 13.2° 1015.7 hPa 2.2 m/s 15.6 mm
16:00 11.4° 1013.7 hPa 3.2 m/s 15.6 mm 11.3° 1013.6 hPa 3.3 m/s 12.4° 1015.1 hPa 1.9 m/s 15.6 mm
19:00 10.7° 1013.5 hPa 3.5 m/s 15.6 mm 10.6° 1013.3 hPa 3.7 m/s 11.2° 1015.7 hPa 1.8 m/s 15.6 mm
22:00 10.5° 1013.0 hPa 4.0 m/s 17.9 mm 10.5° 1012.8 hPa 4.1 m/s 10.6° 1015.4 hPa 3.0 m/s 17.9 mm
 07:22     16:34    Daglengte: 9:12 Zaterdag 23 Nov
01:00 10.4° 1012.4 hPa 4.2 m/s 17.9 mm 10.4° 1012.2 hPa 4.4 m/s 10.6° 1014.5 hPa 2.4 m/s 18.0 mm
04:00 10.0° 1011.7 hPa 4.6 m/s 17.9 mm 10.1° 1011.6 hPa 4.7 m/s 9.6° 1013.0 hPa 3.3 m/s 18.0 mm
07:00 9.7° 1011.0 hPa 4.9 m/s 18.0 mm 9.7° 1011.0 hPa 5.0 m/s 9.5° 1011.6 hPa 4.2 m/s 18.0 mm
10:00 11.8° 1011.1 hPa 5.0 m/s 18.0 mm 11.8° 1011.1 hPa 5.0 m/s 11.6° 1010.8 hPa 4.5 m/s 18.0 mm
13:00 13.9° 1011.0 hPa 5.1 m/s 18.4 mm 13.9° 1011.3 hPa 5.1 m/s 13.7° 1007.9 hPa 4.7 m/s 18.4 mm
16:00 12.7° 1011.3 hPa 5.4 m/s 27.6 mm 12.8° 1011.8 hPa 5.5 m/s 11.8° 1006.0 hPa 3.9 m/s 27.6 mm
19:00 11.7° 1011.7 hPa 6.0 m/s 35.4 mm 11.6° 1012.3 hPa 5.9 m/s 12.7° 1005.0 hPa 6.7 m/s 35.4 mm
22:00 11.6° 1012.3 hPa 5.1 m/s 44.7 mm 11.4° 1013.0 hPa 5.3 m/s 12.9° 1004.8 hPa 2.5 m/s 44.7 mm
 07:23     16:33    Daglengte: 9:10 Zondag 24 Nov
01:00 11.4° 1012.9 hPa 4.7 m/s 55.9 mm 11.3° 1013.7 hPa 4.7 m/s 12.0° 1004.0 hPa 4.7 m/s 55.9 mm
04:00 11.0° 1013.2 hPa 4.4 m/s 57.3 mm 11.0° 1014.0 hPa 4.2 m/s 11.4° 1004.5 hPa 7.5 m/s 57.3 mm
07:00 10.8° 1013.6 hPa 3.9 m/s 57.7 mm 10.7° 1014.3 hPa 3.6 m/s 11.5° 1006.5 hPa 7.5 m/s 57.7 mm
10:00 13.1° 1013.9 hPa 3.7 m/s 58.8 mm 13.2° 1014.3 hPa 3.4 m/s 11.1° 1009.3 hPa 6.8 m/s 58.8 mm
13:00 15.4° 1014.0 hPa 3.4 m/s 60.9 mm 15.8° 1014.3 hPa 3.2 m/s 10.8° 1010.5 hPa 5.6 m/s 60.9 mm
16:00 13.3° 1014.2 hPa 2.9 m/s 61.7 mm 13.6° 1014.3 hPa 2.8 m/s 10.7° 1012.0 hPa 4.0 m/s 61.7 mm
19:00 11.3° 1014.4 hPa 2.3 m/s 62.9 mm 11.3° 1014.4 hPa 2.3 m/s 10.9° 1014.2 hPa 2.8 m/s 62.9 mm
22:00 10.3° 1014.3 hPa 2.6 m/s 63.0 mm 10.2° 1014.2 hPa 2.6 m/s 11.0° 1016.0 hPa 2.4 m/s 63.0 mm
 07:25     16:32    Daglengte: 9:07 Maandag 25 Nov
01:00 9.3° 1014.2 hPa 2.9 m/s 63.0 mm 9.1° 1014.0 hPa 3.0 m/s 11.0° 1016.4 hPa 2.3 m/s 63.0 mm
04:00 8.4° 1013.9 hPa 2.9 m/s 63.0 mm 8.2° 1013.7 hPa 3.0 m/s 10.6° 1016.4 hPa 2.0 m/s 63.0 mm
07:00 7.5° 1013.7 hPa 2.8 m/s 63.0 mm 7.3° 1013.4 hPa 2.9 m/s 10.0° 1017.0 hPa 1.8 m/s 63.0 mm
10:00 11.3° 1013.7 hPa 2.1 m/s 63.0 mm 11.2° 1013.2 hPa 2.1 m/s 11.7° 1018.1 hPa 1.1 m/s 63.0 mm
13:00 15.1° 1013.4 hPa 1.3 m/s 63.0 mm 15.2° 1013.1 hPa 1.4 m/s 13.5° 1017.2 hPa 0.3 m/s 63.0 mm
16:00 12.7° 1013.9 hPa 2.0 m/s 63.0 mm 12.7° 1013.6 hPa 2.0 m/s 12.4° 1017.1 hPa 1.6 m/s 63.0 mm
19:00 10.3° 1014.4 hPa 2.4 m/s 63.0 mm 10.2° 1014.1 hPa 2.6 m/s 10.9° 1017.9 hPa 0.8 m/s 63.0 mm
 07:26     16:31    Daglengte: 9:05 Dinsdag 26 Nov
01:00 8.3° 1015.8 hPa 2.7 m/s 63.0 mm 8.2° 1015.6 hPa 2.9 m/s 9.5° 1018.1 hPa 1.1 m/s 63.0 mm
07:00 6.4° 1016.7 hPa 2.5 m/s 63.0 mm 6.2° 1016.7 hPa 2.6 m/s 8.5° 1017.1 hPa 1.2 m/s 63.0 mm
13:00 14.1° 1016.5 hPa 2.3 m/s 63.0 mm 14.4° 1016.6 hPa 2.5 m/s 10.8° 1015.2 hPa 0.1 m/s 63.0 mm
19:00 9.0° 1016.4 hPa 1.9 m/s 63.0 mm 8.9° 1016.7 hPa 2.0 m/s 9.5° 1013.2 hPa 0.6 m/s 63.0 mm
 07:27     16:31    Daglengte: 9:04 Woensdag 27 Nov
01:00 6.6° 1016.8 hPa 1.9 m/s 63.0 mm 6.3° 1017.4 hPa 1.8 m/s 9.6° 1010.4 hPa 3.1 m/s 63.0 mm
07:00 5.9° 1016.7 hPa 2.1 m/s 70.6 mm 5.5° 1017.7 hPa 1.9 m/s 10.1° 1006.0 hPa 4.6 m/s 70.6 mm
13:00 11.8° 1017.1 hPa 0.6 m/s 74.8 mm 11.8° 1018.4 hPa 0.5 m/s 12.0° 1002.6 hPa 1.3 m/s 74.8 mm
19:00 7.6° 1017.4 hPa 1.9 m/s 74.8 mm 7.3° 1018.8 hPa 2.0 m/s 10.5° 1001.9 hPa 1.4 m/s 74.8 mm
 07:28     16:30    Daglengte: 9:02 Donderdag 28 Nov
01:00 5.3° 1017.3 hPa 1.9 m/s 76.2 mm 4.7° 1019.0 hPa 1.7 m/s 11.9° 998.8 hPa 3.8 m/s 76.2 mm
07:00 12.2° 995.4 hPa 1.9 m/s 83.7 mm 12.2° 995.4 hPa 1.9 m/s 83.7 mm
13:00 12.9° 1010.1 hPa 0.6 m/s 1.8 mm
19:00 11.0° 1011.5 hPa 0.6 m/s 1.3 mm
 07:30     16:30    Daglengte: 9:00 Vrijdag 29 Nov
01:00 10.0° 1013.0 hPa 0.5 m/s 1.2 mm
07:00 9.1° 1014.0 hPa 0.2 m/s 0.5 mm
13:00 12.8° 1015.0 hPa 0.7 m/s 0.2 mm
19:00 10.8° 1016.1 hPa 1.1 m/s 0.6 mm
 07:31     16:29    Daglengte: 8:58 Zaterdag 30 Nov
01:00 9.9° 1016.9 hPa 1.5 m/s 1.2 mm
07:00 9.2° 1016.6 hPa 1.4 m/s 0.6 mm
13:00 12.8° 1016.1 hPa 0.6 m/s 0.5 mm
19:00 10.5° 1016.6 hPa 0.8 m/s 0.3 mm
 07:32     16:29    Daglengte: 8:57 Zondag 01 Dec
01:00 9.5° 1017.0 hPa 1.7 m/s 0.4 mm
07:00 9.0° 1016.7 hPa 1.8 m/s 0.2 mm
13:00 12.4° 1015.8 hPa 1.0 m/s 0.7 mm
19:00 10.5° 1015.8 hPa 1.3 m/s 1.4 mm
 07:33     16:29    Daglengte: 8:56 Maandag 02 Dec
01:00 9.5° 1015.5 hPa 0.8 m/s 1.8 mm
07:00 8.7° 1014.6 hPa 0.9 m/s 1.3 mm
13:00 12.1° 1013.7 hPa 0.3 m/s 1.7 mm
19:00 9.6° 1015.0 hPa 0.7 m/s 0.6 mm
 07:34     16:28    Daglengte: 8:54 Dinsdag 03 Dec
01:00 8.3° 1015.4 hPa 1.4 m/s 0.5 mm
07:00 7.3° 1015.1 hPa 1.8 m/s 0.4 mm
13:00 11.2° 1014.0 hPa 1.1 m/s 0.4 mm
FMI Hirlam - 7.5 km EWN WRFDA - 12 km DWD ICON - 7 km GFS - 25 km Basiskaart






























































Updatetijd (Europe/Amsterdam) Resolutie Lengte Stap
FMI Hirlam 18:00, 00:00, 06:00, 12:00 7.5 km 49h 1h
EWN WRFDA 14:30, 20:30, 02:30, 08:30 12 km 73h 1h
DWD ICON 16:45, 22:45, 04:45, 10:45 7 km 75h 1h
GFS 13:30, 19:30, 01:30, 07:30 25 km 237h 3h
30+ mm
25-30 mm
20-25 mm
15-20 mm
10-15 mm
6-10 mm
4-6 mm
2-4 mm
1-2 mm
0.5-1 mm
0.2-0.5 mm
0.1-0.2 mm
30+ mm
25-30 mm
20-25 mm
15-20 mm
10-15 mm
6-10 mm
4-6 mm
2-4 mm
1-2 mm
0.5-1 mm
0.2-0.5 mm
0.1-0.2 mm
Sneeuwval
Natte sneeuw
Hagel
Vorst
30+ mm
25-30 mm
20-25 mm
15-20 mm
10-15 mm
6-10 mm
4-6 mm
2-4 mm
1-2 mm
0.5-1 mm
0.2-0.5 mm
0.1-0.2 mm
Sneeuwval
Natte sneeuw
Hagel
Vorst
Onweer
50 mm
40 mm
30 mm
26 mm
22 mm
18 mm
14 mm
10 mm
9 mm
8 mm
7 mm
6 mm
5 mm
4.5 mm
4 mm
3.5 mm
3 mm
2.5 mm
2 mm
1.5 mm
1 mm
0.8 mm
0.6 mm
0.4 mm
0.2 mm
0.05 mm
35°
30°
25°
20°
15°
10°
-5°
-10°
-15°
-20°
-25°
-30°
-35°
120> km/h
105 km/h
90 km/h
75 km/h
60 km/h
50 km/h
40 km/h
30 km/h
20 km/h
10 km/h
0 km/h
2600 J/kg
2400 J/kg
2200 J/kg
2000 J/kg
1800 J/kg
1600 J/kg
1400 J/kg
1200 J/kg
1000 J/kg
800 J/kg
600 J/kg
400 J/kg
200 J/kg
70 dBZ
65 dBZ
60 dBZ
55 dBZ
50 dBZ
45 dBZ
40 dBZ
35 dBZ
30 dBZ
25 dBZ
20 dBZ
15 dBZ
10 dBZ
5 dBZ
-1 K
-2 K
-3 K
-4 K
-5 K
-6 K
-7 K
-8 K
-9 K
950 m²/s²
900 m²/s²
850 m²/s²
800 m²/s²
750 m²/s²
700 m²/s²
650 m²/s²
600 m²/s²
550 m²/s²
500 m²/s²
450 m²/s²
400 m²/s²
350 m²/s²
300 m²/s²
250 m²/s²
200 m²/s²
150 m²/s²
100 m²/s²
46 m/s
44 m/s
42 m/s
40 m/s
38 m/s
36 m/s
34 m/s
32 m/s
30 m/s
28 m/s
26 m/s
24 m/s
22 m/s
20 m/s
16 m/s
12 m/s
8 m/s
4 m/s
30 m/s
28 m/s
26 m/s
24 m/s
22 m/s
20 m/s
18 m/s
16 m/s
14 m/s
12 m/s
10 m/s
8 m/s
6 m/s
4 m/s
2 m/s
3.0
2.8
2.6
2.4
2.2
2.0
1.8
1.6
1.4
1.2
1.0
0.8
0.6
0.4
0.2
15
14
13
12
11
10
9
8
7
6
5
4
3
2
1
90%
80%
70%
60%
50%
40%
30%
20%
10%
42
40
38
36
34
32
30
28
26
24
22
20
18
16
14
12
90+ cm
80-90 cm
70-80 cm
60-70 cm
50-60 cm
40-50 cm
30-40 cm
20-30 cm
10-20 cm
1-10 cm
Sneeuwval
Natte sneeuw
Regen
>120 mm
115 mm
110 mm
105 mm
100 mm
95 mm
90 mm
85 mm
80 mm
75 mm
70 mm
65 mm
60 mm
55 mm
50 mm
45 mm
45 mm
40 mm
35 mm
30 mm
25 mm
20 mm
15 mm
10 mm
5 mm
0.1 mm
960 hPa
880 hPa
800 hPa
720 hPa
640 hPa
560 hPa
584 gpdm
568 gpdm
552 gpdm
536 gpdm
520 gpdm
504 gpdm
488 gpdm
Extreem zwaar Noodweer Kans op onweer
15% 15% 5% 50% 15%

Dag




Kaart






35°
30°
25°
20°
15°
10°
-5°
-10°
-15°
-20°
-25°
-30°
-35°
120> km/h
105 km/h
90 km/h
75 km/h
60 km/h
50 km/h
40 km/h
30 km/h
20 km/h
10 km/h
0 km/h
Extreem zwaar Noodweer Kans op onweer
15% 15% 5% 50% 15%
>120 mm
115 mm
110 mm
105 mm
100 mm
95 mm
90 mm
85 mm
80 mm
75 mm
70 mm
65 mm
60 mm
55 mm
50 mm
45 mm
45 mm
40 mm
35 mm
30 mm
25 mm
20 mm
15 mm
10 mm
5 mm
0.1 mm
Onweer risico kaarten - De groene en gele kleur geeft de kans op onweer aan binnen 40 km van een punt. Oranje, rood en violet hebben hetzelfde niveau zoals je het ziet op estofex.org waaronder ook de kans op hagel en supercells.

dBZ - dBZ staat voor decibel ten opzichte van Z.

Cape - Convective available potential energy (CAPE), is de totale hoeveelheid energie die een luchtpakketje nodig heeft om zover mogelijk te stijgen in de atmosfeer.

K Index - K-Index wordt berekend door de Vertical Totals (VT) en het verschil tussen de 850 hPa temperatuur en de 700 hPa dauwpuntsdepressie (Tdd 700) bij elkaar op te tellen.

TT Index - Convectie index wordt gebruikt voor het voorspellen van zware buien of onweer.

WRF - The Weather Research and Forecasting (WRF) is een volgende generatie mesoscale numeriek weersvoorspelling systeem ontworpen om zowel de operationele planning als het atmosferisch onderzoek te dienen. WRF is a cooperatie tussen het National Center for Atmospheric Research (NCAR), National Centers for Environmental Prediction (NCEP), Forecast Systems Laboratory (FSL), Air Force Weather Agency (AFWA), Naval Research Laboratory, University of Oklahoma, en de Federal Aviation Administration (FAA). Deze software draait op onze server.

WRFDA - Een meer geavanceerde versie van WRF

Arome - Het 2.5 km Arome model. Verzorgd door het Noors Meteorologisch Instituut.

MET Norway - De proff-default 4km meteorological data is een beste keus selectie van meteorologische modellen gebruikt door met.no die zijn geïnterpoleerd tot een gemeenschappelijke dataset. Verzorgd door het Noorse Meteorologisch Instituut.

SMHI - Het Hirlam model verzorgd door het Zweeds meteorologisch instituut.

FMI - Het Hirlam model verzorgd door het Fins meteorologisch instituut. Dekking alleen Finland.

GFS - Het Global Forecast Systeem (GFS) is een wereldwijd numerieke weersvoorspelling computermodel, gerund door NOAA.

GEM-GDPS - Het GEM-GDPS is a wereldwijd numeriek weersvoorspelling computermodel verzorgd door het Canadees Meteorologisch Centrum.

Credits/Info: Dank aan Stefan Gofferje van sääkeskus.fi voor enkele formules van GrADS. Info: Wikipedia.

Betrouwbaarheid van de verwachting

NB! 2015-03-29: Rebuilding the accuracy-test!

EWNACC
Day 1 Good forecasts

Dag 1 Tmax

Dag 2 Tmax

Geladen verwachtingen TOP 50

Totaal geladen verwachtingen:
Plaats Latitude Longitude Verwachtingen Plaats Latitude Longitude Verwachtingen